| time (UTC) | temp C | wind direction | speed KPH | gust KPH | rain 1hr cm | rain 24hr cm | rain mn cm | humidity % | barometer mb |
| 20260904040226 | 28 | 348 | 1.6 | 1.6 | 0.00 | 0.00 | 0.00 | 81 | 1013.6 |
| 20260904035722 | 28 | 352 | 0.0 | 0.0 | 0.00 | 0.00 | 0.00 | 81 | 1013.6 |
| 20260904035217 | 28 | 355 | 3.2 | 3.2 | 0.00 | 0.00 | 0.00 | 81 | 1013.6 |
| 20260904034716 | 28 | 305 | 3.2 | 4.8 | 0.00 | 0.00 | 0.00 | 81 | 1013.6 |
| 20260904034212 | 28 | 15 | 1.6 | 1.6 | 0.00 | 0.00 | 0.00 | 81 | 1013.7 |
| 20260904033708 | 28 | 342 | 1.6 | 3.2 | 0.00 | 0.00 | 0.00 | 81 | 1013.6 |
| 20260904033205 | 28 | 325 | 1.6 | 1.6 | 0.00 | 0.00 | 0.00 | 81 | 1013.6 |
| 20260904032700 | 28 | 31 | 1.6 | 1.6 | 0.00 | 0.00 | 0.00 | 80 | 1013.6 |
| 20260904032200 | 28 | 344 | 1.6 | 1.6 | 0.00 | 0.00 | 0.00 | 80 | 1013.4 |
| 20260904031700 | 28 | 158 | 1.6 | 3.2 | 0.00 | 0.00 | 0.00 | 80 | 1013.3 |
| 20260904031155 | 28 | 37 | 3.2 | 3.2 | 0.00 | 0.00 | 0.00 | 79 | 1013.3 |
| 20260904030651 | 28 | 197 | 4.8 | 4.8 | 0.00 | 0.00 | 0.00 | 79 | 1013.2 |
| 20260904030146 | 28 | 224 | 4.8 | 6.4 | 0.00 | 0.00 | 0.00 | 79 | 1013.4 |
| 20260904025642 | 28 | 29 | 4.8 | 4.8 | 0.00 | 0.00 | 0.00 | 79 | 1013.3 |
| 20260904025136 | 28 | 79 | 3.2 | 3.2 | 0.00 | 0.00 | 0.00 | 79 | 1013.1 |
| 20260904024627 | 28 | 2 | 1.6 | 1.6 | 0.00 | 0.00 | 0.00 | 79 | 1013.3 |
| 20260904024122 | 28 | 45 | 1.6 | 1.6 | 0.00 | 0.00 | 0.00 | 79 | 1013.2 |
| 20260904023618 | 28 | 46 | 3.2 | 4.8 | 0.00 | 0.00 | 0.00 | 80 | 1013.0 |
| 20260904023113 | 28 | 164 | 6.4 | 6.4 | 0.00 | 0.00 | 0.00 | 79 | 1013.0 |
| 20260904022608 | 28 | 115 | 4.8 | 6.4 | 0.00 | 0.00 | 0.00 | 79 | 1012.9 |
| 20260904022105 | 28 | 270 | 4.8 | 4.8 | 0.00 | 0.00 | 0.00 | 79 | 1013.2 |
| 20260904021600 | 28 | 10 | 1.6 | 3.2 | 0.00 | 0.00 | 0.00 | 78 | 1013.1 |
| 20260904021055 | 28 | 9 | 1.6 | 3.2 | 0.00 | 0.00 | 0.00 | 78 | 1013.2 |
| 20260904020550 | 28 | 267 | 3.2 | 3.2 | 0.00 | 0.00 | 0.00 | 78 | 1013.1 |
| 20260904020045 | 28 | 336 | 3.2 | 4.8 | 0.00 | 0.00 | 0.00 | 78 | 1013.0 |
| 20260904015539 | 28 | 297 | 1.6 | 3.2 | 0.00 | 0.00 | 0.00 | 78 | 1013.0 |
| 20260904015038 | 28 | 331 | 3.2 | 3.2 | 0.00 | 0.00 | 0.00 | 78 | 1013.1 |
| 20260904014532 | 28 | 297 | 1.6 | 3.2 | 0.00 | 0.00 | 0.00 | 78 | 1013.1 |
| 20260904014028 | 29 | 8 | 3.2 | 3.2 | 0.00 | 0.00 | 0.00 | 78 | 1013.0 |
| 20260904013524 | 29 | 352 | 1.6 | 1.6 | 0.00 | 0.00 | 0.00 | 78 | 1012.8 |
| 20260904013021 | 29 | 354 | 3.2 | 3.2 | 0.00 | 0.00 | 0.00 | 77 | 1012.7 |
| 20260904012520 | 29 | 108 | 3.2 | 4.8 | 0.00 | 0.00 | 0.00 | 77 | 1012.8 |
| 20260904012014 | 30 | 348 | 1.6 | 1.6 | 0.00 | 0.00 | 0.00 | 76 | 1012.7 |
| 20260904011509 | 30 | 353 | 1.6 | 1.6 | 0.00 | 0.00 | 0.00 | 76 | 1012.6 |
| 20260904011004 | 30 | 184 | 4.8 | 4.8 | 0.00 | 0.00 | 0.00 | 76 | 1012.7 |
| 20260904010501 | 30 | 7 | 1.6 | 3.2 | 0.00 | 0.00 | 0.00 | 75 | 1012.7 |
| 20260904010000 | 30 | 35 | 1.6 | 3.2 | 0.00 | 0.00 | 0.00 | 75 | 1012.5 |
| 20260904005456 | 30 | 350 | 1.6 | 1.6 | 0.00 | 0.00 | 0.00 | 74 | 1012.4 |
| 20260904004951 | 30 | 151 | 3.2 | 4.8 | 0.00 | 0.00 | 0.00 | 74 | 1012.5 |
| 20260904004448 | 30 | 19 | 1.6 | 1.6 | 0.00 | 0.00 | 0.00 | 73 | 1012.5 |
| 20260904003947 | 31 | 241 | 3.2 | 4.8 | 0.00 | 0.00 | 0.00 | 72 | 1012.4 |
| 20260904003443 | 31 | 0 | 1.6 | 3.2 | 0.00 | 0.00 | 0.00 | 71 | 1012.2 |
| 20260904002938 | 31 | 345 | 1.6 | 4.8 | 0.00 | 0.00 | 0.00 | 70 | 1012.2 |
| 20260904002435 | 31 | 42 | 4.8 | 4.8 | 0.00 | 0.00 | 0.00 | 70 | 1012.3 |
| 20260904001933 | 31 | 269 | 3.2 | 3.2 | 0.00 | 0.00 | 0.00 | 69 | 1012.1 |
| 20260904001429 | 31 | 336 | 3.2 | 4.8 | 0.00 | 0.00 | 0.00 | 69 | 1012.2 |
| 20260904000924 | 31 | 170 | 6.4 | 6.4 | 0.00 | 0.00 | 0.00 | 69 | 1012.1 |
| 20260904000425 | 32 | 119 | 3.2 | 4.8 | 0.00 | 0.00 | 0.00 | 69 | 1012.1 |
| 20260903235919 | 32 | 315 | 4.8 | 6.4 | 0.00 | 0.00 | 0.00 | 68 | 1012.0 |
| 20260903235415 | 32 | 256 | 6.4 | 6.4 | 0.00 | 0.00 | 0.00 | 67 | 1012.0 |
| 20260903234914 | 32 | 229 | 6.4 | 6.4 | 0.00 | 0.00 | 0.00 | 67 | 1012.0 |
| 20260903234410 | 32 | 227 | 9.7 | 11.3 | 0.00 | 0.00 | 0.00 | 66 | 1012.0 |
| 20260903233906 | 32 | 3 | 1.6 | 3.2 | 0.00 | 0.00 | 0.00 | 66 | 1012.0 |
| 20260903233402 | 32 | 163 | 6.4 | 6.4 | 0.00 | 0.00 | 0.00 | 66 | 1011.9 |
| 20260903232901 | 32 | 156 | 3.2 | 3.2 | 0.00 | 0.00 | 0.00 | 66 | 1011.6 |
| 20260903232356 | 32 | 211 | 6.4 | 6.4 | 0.00 | 0.00 | 0.00 | 66 | 1011.8 |
| 20260903231855 | 32 | 280 | 4.8 | 4.8 | 0.00 | 0.00 | 0.00 | 65 | 1011.8 |
| 20260903231351 | 32 | 316 | 3.2 | 3.2 | 0.00 | 0.00 | 0.00 | 65 | 1012.0 |
| 20260903230846 | 32 | 305 | 3.2 | 3.2 | 0.00 | 0.00 | 0.00 | 65 | 1011.9 |
| 20260903230341 | 32 | 338 | 4.8 | 6.4 | 0.00 | 0.00 | 0.00 | 65 | 1011.7 |
| 20260903225837 | 32 | 195 | 6.4 | 6.4 | 0.00 | 0.00 | 0.00 | 64 | 1011.7 |
| 20260903225328 | 33 | 235 | 6.4 | 9.7 | 0.00 | 0.00 | 0.00 | 63 | 1011.7 |
| 20260903224824 | 33 | 216 | 14.5 | 14.5 | 0.00 | 0.00 | 0.00 | 61 | 1011.6 |
| 20260903224320 | 33 | 232 | 4.8 | 6.4 | 0.00 | 0.00 | 0.00 | 59 | 1011.6 |
| 20260903223816 | 33 | 225 | 11.3 | 12.9 | 0.00 | 0.00 | 0.00 | 60 | 1011.5 |
| 20260903223314 | 34 | 242 | 12.9 | 16.1 | 0.00 | 0.00 | 0.00 | 59 | 1011.4 |
| 20260903222809 | 33 | 201 | 11.3 | 14.5 | 0.00 | 0.00 | 0.00 | 59 | 1011.3 |
| 20260903222308 | 33 | 208 | 17.7 | 24.1 | 0.00 | 0.00 | 0.00 | 59 | 1011.1 |
| 20260903221802 | 34 | 230 | 14.5 | 17.7 | 0.00 | 0.00 | 0.00 | 58 | 1011.3 |
| 20260903221301 | 34 | 190 | 9.7 | 17.7 | 0.00 | 0.00 | 0.00 | 58 | 1011.3 |
| 20260903220800 | 35 | 255 | 8.0 | 9.7 | 0.00 | 0.00 | 0.00 | 58 | 1011.5 |
| 20260903220255 | 34 | 189 | 9.7 | 14.5 | 0.00 | 0.00 | 0.00 | 58 | 1012.0 |
| 20260903215753 | 34 | 207 | 16.1 | 17.7 | 0.00 | 0.00 | 0.00 | 58 | 1012.0 |
| 20260903215249 | 34 | 337 | 8.0 | 11.3 | 0.00 | 0.00 | 0.00 | 56 | 1012.0 |
| 20260903214747 | 34 | 241 | 8.0 | 9.7 | 0.00 | 0.00 | 0.00 | 57 | 1012.5 |
| 20260903214239 | 35 | 270 | 6.4 | 9.7 | 0.00 | 0.00 | 0.00 | 56 | 1012.5 |
| 20260903213738 | 35 | 298 | 4.8 | 6.4 | 0.00 | 0.00 | 0.00 | 55 | 1012.6 |
| 20260903213233 | 35 | 244 | 6.4 | 9.7 | 0.00 | 0.00 | 0.00 | 56 | 1012.8 |
| 20260903212724 | 35 | 219 | 11.3 | 16.1 | 0.00 | 0.00 | 0.00 | 55 | 1012.8 |
| 20260903212220 | 35 | 251 | 6.4 | 6.4 | 0.00 | 0.00 | 0.00 | 55 | 1012.9 |
| 20260903211718 | 35 | 244 | 9.7 | 12.9 | 0.00 | 0.00 | 0.00 | 56 | 1013.0 |
| 20260903211215 | 35 | 268 | 12.9 | 14.5 | 0.00 | 0.00 | 0.00 | 55 | 1013.1 |
| 20260903210711 | 35 | 270 | 6.4 | 9.7 | 0.00 | 0.00 | 0.00 | 55 | 1013.1 |
| 20260903210207 | 35 | 296 | 9.7 | 11.3 | 0.00 | 0.00 | 0.00 | 55 | 1013.2 |
| 20260903205706 | 35 | 236 | 8.0 | 9.7 | 0.00 | 0.00 | 0.00 | 55 | 1013.0 |
| 20260903205205 | 35 | 275 | 8.0 | 11.3 | 0.00 | 0.00 | 0.00 | 51 | 1013.1 |
| 20260903204701 | 35 | 214 | 8.0 | 9.7 | 0.00 | 0.00 | 0.00 | 52 | 1013.2 |
| 20260903204157 | 35 | 232 | 6.4 | 9.7 | 0.00 | 0.00 | 0.00 | 54 | 1013.3 |
| 20260903203652 | 35 | 255 | 4.8 | 4.8 | 0.00 | 0.00 | 0.00 | 55 | 1013.1 |
| 20260903203148 | 35 | 237 | 11.3 | 14.5 | 0.00 | 0.00 | 0.00 | 54 | 1013.1 |
| 20260903202642 | 35 | 267 | 11.3 | 14.5 | 0.00 | 0.00 | 0.00 | 56 | 1013.3 |
| 20260903202138 | 35 | 247 | 4.8 | 4.8 | 0.00 | 0.00 | 0.00 | 55 | 1013.3 |
| 20260903201632 | 35 | 280 | 9.7 | 12.9 | 0.00 | 0.00 | 0.00 | 55 | 1013.4 |
| 20260903201131 | 35 | 210 | 9.7 | 12.9 | 0.00 | 0.00 | 0.00 | 54 | 1013.2 |
| 20260903200626 | 35 | 234 | 6.4 | 6.4 | 0.00 | 0.00 | 0.00 | 52 | 1013.2 |
| 20260903200121 | 35 | 227 | 9.7 | 11.3 | 0.00 | 0.00 | 0.00 | 52 | 1013.2 |
| 20260903195617 | 35 | 227 | 3.2 | 6.4 | 0.00 | 0.00 | 0.00 | 53 | 1013.2 |
| 20260903195113 | 34 | 157 | 3.2 | 4.8 | 0.00 | 0.00 | 0.00 | 55 | 1013.2 |
| 20260903194609 | 35 | 262 | 3.2 | 6.4 | 0.00 | 0.00 | 0.00 | 54 | 1013.3 |
| 20260903194108 | 35 | 208 | 8.0 | 11.3 | 0.00 | 0.00 | 0.00 | 55 | 1013.4 |
| 20260903193605 | 35 | 270 | 8.0 | 11.3 | 0.00 | 0.00 | 0.00 | 54 | 1013.5 |
| 20260903193100 | 35 | 272 | 8.0 | 9.7 | 0.00 | 0.00 | 0.00 | 54 | 1013.6 |
| 20260903192557 | 35 | 332 | 1.6 | 1.6 | 0.00 | 0.00 | 0.00 | 54 | 1013.7 |
| 20260903192057 | 35 | 217 | 8.0 | 11.3 | 0.00 | 0.00 | 0.00 | 54 | 1013.6 |
| 20260903191553 | 34 | 204 | 6.4 | 6.4 | 0.00 | 0.00 | 0.00 | 55 | 1013.9 |
| 20260903191048 | 34 | 190 | 8.0 | 12.9 | 0.00 | 0.00 | 0.00 | 56 | 1013.7 |
| 20260903190547 | 34 | 295 | 1.6 | 3.2 | 0.00 | 0.00 | 0.00 | 55 | 1013.9 |
| 20260903190047 | 34 | 331 | 3.2 | 3.2 | 0.00 | 0.00 | 0.00 | 57 | 1013.6 |
| 20260903185542 | 34 | 219 | 12.9 | 16.1 | 0.00 | 0.00 | 0.00 | 58 | 1013.7 |
| 20260903185038 | 33 | 193 | 9.7 | 11.3 | 0.00 | 0.00 | 0.00 | 58 | 1013.7 |
| 20260903184534 | 32 | 232 | 3.2 | 3.2 | 0.00 | 0.00 | 0.00 | 63 | 1013.7 |
| 20260903184029 | 32 | 98 | 4.8 | 4.8 | 0.00 | 0.00 | 0.00 | 65 | 1013.9 |
| 20260903183523 | 32 | 320 | 3.2 | 4.8 | 0.00 | 0.00 | 0.00 | 63 | 1013.9 |
| 20260903183018 | 32 | 37 | 6.4 | 6.4 | 0.00 | 0.00 | 0.00 | 64 | 1014.0 |
| 20260903182516 | 32 | 95 | 3.2 | 4.8 | 0.00 | 0.00 | 0.00 | 63 | 1014.0 |
| 20260903182013 | 32 | 218 | 4.8 | 4.8 | 0.00 | 0.00 | 0.00 | 63 | 1014.2 |
| 20260903181511 | 31 | 178 | 4.8 | 4.8 | 0.00 | 0.00 | 0.00 | 64 | 1014.4 |
| 20260903181011 | 32 | 38 | 1.6 | 1.6 | 0.00 | 0.00 | 0.00 | 65 | 1014.5 |
| 20260903180507 | 31 | 189 | 8.0 | 9.7 | 0.00 | 0.00 | 0.00 | 64 | 1014.4 |
| 20260903180006 | 31 | 200 | 6.4 | 6.4 | 0.00 | 0.00 | 0.00 | 67 | 1014.3 |
| 20260903175505 | 32 | 261 | 3.2 | 4.8 | 0.00 | 0.00 | 0.00 | 66 | 1014.4 |
| 20260903175005 | 32 | 286 | 4.8 | 6.4 | 0.00 | 0.00 | 0.00 | 67 | 1014.7 |
| 20260903174500 | 32 | 172 | 4.8 | 4.8 | 0.00 | 0.00 | 0.00 | 67 | 1014.5 |
| 20260903174000 | 31 | 314 | 3.2 | 3.2 | 0.00 | 0.00 | 0.00 | 67 | 1014.7 |
| 20260903173455 | 31 | 337 | 4.8 | 4.8 | 0.00 | 0.00 | 0.00 | 67 | 1014.6 |
| 20260903172951 | 31 | 291 | 3.2 | 3.2 | 0.00 | 0.00 | 0.00 | 66 | 1014.7 |
| 20260903172446 | 31 | 234 | 6.4 | 6.4 | 0.00 | 0.00 | 0.00 | 65 | 1014.6 |
| 20260903171941 | 31 | 133 | 3.2 | 3.2 | 0.00 | 0.00 | 0.00 | 65 | 1014.5 |
| 20260903171436 | 32 | 23 | 3.2 | 3.2 | 0.00 | 0.00 | 0.00 | 65 | 1014.8 |
| 20260903170936 | 31 | 99 | 6.4 | 6.4 | 0.00 | 0.00 | 0.00 | 67 | 1014.7 |
| 20260903170431 | 31 | 344 | 3.2 | 3.2 | 0.00 | 0.00 | 0.00 | 65 | 1014.5 |
| 20260903165930 | 32 | 136 | 3.2 | 4.8 | 0.00 | 0.00 | 0.00 | 62 | 1014.6 |
| 20260903165424 | 31 | 352 | 3.2 | 3.2 | 0.00 | 0.00 | 0.00 | 65 | 1014.7 |
| 20260903164924 | 31 | 334 | 0.0 | 1.6 | 0.00 | 0.00 | 0.00 | 63 | 1014.6 |
| 20260903164420 | 32 | 25 | 0.0 | 1.6 | 0.00 | 0.00 | 0.00 | 62 | 1014.7 |
| 20260903163919 | 31 | 273 | 3.2 | 3.2 | 0.00 | 0.00 | 0.00 | 65 | 1014.6 |
| 20260903163415 | 30 | 332 | 1.6 | 1.6 | 0.00 | 0.00 | 0.00 | 68 | 1014.5 |
| 20260903162911 | 30 | 288 | 4.8 | 6.4 | 0.00 | 0.00 | 0.00 | 68 | 1014.7 |
| 20260903162408 | 30 | 75 | 4.8 | 4.8 | 0.00 | 0.00 | 0.00 | 68 | 1014.8 |
| 20260903161903 | 30 | 62 | 3.2 | 3.2 | 0.00 | 0.00 | 0.00 | 70 | 1014.7 |
| 20260903161358 | 30 | 72 | 4.8 | 4.8 | 0.00 | 0.00 | 0.00 | 70 | 1014.6 |
| 20260903160854 | 30 | 63 | 6.4 | 6.4 | 0.00 | 0.00 | 0.00 | 70 | 1014.9 |
| 20260903160352 | 30 | 23 | 3.2 | 3.2 | 0.00 | 0.00 | 0.00 | 69 | 1014.7 |
| 20260903155851 | 31 | 29 | 3.2 | 3.2 | 0.00 | 0.00 | 0.00 | 67 | 1014.8 |
| 20260903155347 | 31 | 72 | 3.2 | 3.2 | 0.00 | 0.00 | 0.00 | 66 | 1014.9 |
| 20260903154843 | 30 | 1 | 1.6 | 1.6 | 0.00 | 0.00 | 0.00 | 67 | 1014.9 |
| 20260903154339 | 29 | 41 | 4.8 | 4.8 | 0.00 | 0.00 | 0.00 | 69 | 1015.0 |
| 20260903153839 | 29 | 21 | 3.2 | 4.8 | 0.00 | 0.00 | 0.00 | 69 | 1015.0 |
| 20260903153335 | 29 | 68 | 3.2 | 3.2 | 0.00 | 0.00 | 0.00 | 71 | 1014.8 |
| 20260903152831 | 29 | 32 | 3.2 | 6.4 | 0.00 | 0.00 | 0.00 | 69 | 1015.0 |
| 20260903152327 | 30 | 353 | 1.6 | 1.6 | 0.00 | 0.00 | 0.00 | 70 | 1014.8 |
| 20260903151821 | 28 | 37 | 3.2 | 4.8 | 0.00 | 0.00 | 0.00 | 71 | 1015.0 |
| 20260903151318 | 28 | 37 | 3.2 | 3.2 | 0.00 | 0.00 | 0.00 | 71 | 1015.0 |
| 20260903150817 | 28 | 355 | 1.6 | 3.2 | 0.00 | 0.00 | 0.00 | 74 | 1014.9 |
| 20260903150317 | 28 | 355 | 1.6 | 1.6 | 0.00 | 0.00 | 0.00 | 74 | 1014.9 |
| 20260903145812 | 28 | 68 | 3.2 | 4.8 | 0.00 | 0.00 | 0.00 | 74 | 1015.0 |
| 20260903145307 | 28 | 34 | 6.4 | 6.4 | 0.00 | 0.00 | 0.00 | 75 | 1015.1 |
| 20260903144806 | 27 | 335 | 1.6 | 3.2 | 0.00 | 0.00 | 0.00 | 76 | 1015.0 |
| 20260903144302 | 28 | 349 | 6.4 | 6.4 | 0.00 | 0.00 | 0.00 | 75 | 1015.1 |
| 20260903143757 | 28 | 346 | 1.6 | 3.2 | 0.00 | 0.00 | 0.00 | 74 | 1015.0 |
| 20260903143253 | 27 | 338 | 4.8 | 6.4 | 0.00 | 0.00 | 0.00 | 76 | 1015.0 |
| 20260903142749 | 28 | 67 | 6.4 | 6.4 | 0.00 | 0.00 | 0.00 | 75 | 1014.8 |
| 20260903142245 | 28 | 8 | 3.2 | 4.8 | 0.00 | 0.00 | 0.00 | 75 | 1015.1 |
| 20260903141741 | 28 | 345 | 3.2 | 4.8 | 0.00 | 0.00 | 0.00 | 75 | 1015.0 |
| 20260903141236 | 28 | 357 | 3.2 | 4.8 | 0.00 | 0.00 | 0.00 | 74 | 1015.1 |
| 20260903140732 | 27 | 318 | 1.6 | 1.6 | 0.00 | 0.00 | 0.00 | 76 | 1014.9 |
| 20260903140231 | 27 | 340 | 3.2 | 4.8 | 0.00 | 0.00 | 0.00 | 77 | 1014.9 |
| 20260903135728 | 26 | 330 | 4.8 | 6.4 | 0.00 | 0.00 | 0.00 | 79 | 1015.0 |
| 20260903135223 | 26 | 350 | 6.4 | 6.4 | 0.00 | 0.00 | 0.00 | 80 | 1015.3 |
| 20260903134721 | 26 | 11 | 6.4 | 6.4 | 0.00 | 0.00 | 0.00 | 82 | 1015.4 |
| 20260903134217 | 26 | 313 | 6.4 | 6.4 | 0.00 | 0.00 | 0.00 | 81 | 1015.1 |
| 20260903133715 | 26 | 326 | 4.8 | 4.8 | 0.00 | 0.00 | 0.00 | 82 | 1014.9 |
| 20260903133212 | 26 | 338 | 16.1 | 20.9 | 0.00 | 0.00 | 0.00 | 84 | 1015.4 |
| 20260903132711 | 25 | 349 | 0.0 | 0.0 | 0.00 | 0.00 | 0.00 | 85 | 1014.8 |
| 20260903132206 | 25 | 326 | 9.7 | 14.5 | 0.00 | 0.00 | 0.00 | 84 | 1015.2 |
| 20260903131701 | 25 | 319 | 3.2 | 3.2 | 0.00 | 0.00 | 0.00 | 83 | 1014.5 |
| 20260903131155 | 26 | 277 | 3.2 | 3.2 | 0.00 | 0.00 | 0.00 | 83 | 1014.4 |
| 20260903130650 | 26 | 322 | 3.2 | 3.2 | 0.00 | 0.00 | 0.00 | 83 | 1014.3 |
| 20260903130149 | 26 | 267 | 3.2 | 4.8 | 0.00 | 0.00 | 0.00 | 82 | 1014.3 |
| 20260903125648 | 25 | 236 | 4.8 | 6.4 | 0.00 | 0.00 | 0.00 | 83 | 1014.2 |
| 20260903125144 | 25 | 319 | 3.2 | 3.2 | 0.00 | 0.00 | 0.00 | 83 | 1014.1 |
| 20260903124638 | 25 | 311 | 3.2 | 3.2 | 0.00 | 0.00 | 0.00 | 84 | 1014.4 |
| 20260903124137 | 25 | 241 | 4.8 | 4.8 | 0.00 | 0.00 | 0.00 | 84 | 1014.1 |
| 20260903123637 | 25 | 297 | 3.2 | 3.2 | 0.00 | 0.00 | 0.00 | 84 | 1014.1 |
| 20260903123136 | 25 | 309 | 1.6 | 3.2 | 0.00 | 0.00 | 0.00 | 84 | 1014.1 |
| 20260903122636 | 25 | 286 | 3.2 | 3.2 | 0.00 | 0.00 | 0.00 | 85 | 1014.2 |
| 20260903122130 | 25 | 306 | 3.2 | 3.2 | 0.00 | 0.00 | 0.00 | 85 | 1014.3 |
| 20260903121629 | 25 | 306 | 3.2 | 3.2 | 0.00 | 0.00 | 0.00 | 85 | 1014.1 |
| 20260903121125 | 25 | 317 | 3.2 | 3.2 | 0.00 | 0.00 | 0.00 | 85 | 1014.1 |
| 20260903120624 | 25 | 230 | 4.8 | 4.8 | 0.00 | 0.00 | 0.00 | 85 | 1014.0 |
| 20260903120119 | 25 | 343 | 1.6 | 1.6 | 0.00 | 0.00 | 0.00 | 85 | 1014.0 |
| 20260903115617 | 25 | 339 | 0.0 | 0.0 | 0.00 | 0.00 | 0.00 | 85 | 1014.0 |
| 20260903115113 | 25 | 346 | 0.0 | 1.6 | 0.00 | 0.00 | 0.00 | 85 | 1013.9 |
| 20260903114608 | 25 | 309 | 3.2 | 3.2 | 0.00 | 0.00 | 0.00 | 85 | 1014.0 |
| 20260903114103 | 25 | 330 | 0.0 | 0.0 | 0.00 | 0.00 | 0.00 | 86 | 1014.0 |
| 20260903113558 | 25 | 332 | 1.6 | 1.6 | 0.00 | 0.00 | 0.00 | 86 | 1013.9 |
| 20260903113054 | 25 | 299 | 3.2 | 4.8 | 0.00 | 0.00 | 0.00 | 86 | 1013.9 |
| 20260903112550 | 25 | 337 | 0.0 | 0.0 | 0.00 | 0.00 | 0.00 | 86 | 1013.7 |
| 20260903112050 | 25 | 311 | 3.2 | 3.2 | 0.00 | 0.00 | 0.00 | 86 | 1013.5 |
| 20260903111549 | 25 | 303 | 3.2 | 3.2 | 0.00 | 0.00 | 0.00 | 86 | 1013.7 |
| 20260903111040 | 25 | 345 | 0.0 | 0.0 | 0.00 | 0.00 | 0.00 | 87 | 1013.6 |
| 20260903110536 | 25 | 338 | 0.0 | 0.0 | 0.00 | 0.00 | 0.00 | 87 | 1013.5 |
| 20260903110036 | 25 | 341 | 1.6 | 1.6 | 0.00 | 0.00 | 0.00 | 86 | 1013.7 |
| 20260903105531 | 25 | 229 | 3.2 | 3.2 | 0.00 | 0.00 | 0.00 | 86 | 1013.5 |
| 20260903105025 | 25 | 331 | 1.6 | 3.2 | 0.00 | 0.00 | 0.00 | 86 | 1013.7 |
| 20260903104519 | 25 | 335 | 0.0 | 1.6 | 0.00 | 0.00 | 0.00 | 86 | 1013.7 |
| 20260903104015 | 25 | 313 | 1.6 | 3.2 | 0.00 | 0.00 | 0.00 | 86 | 1013.5 |
| 20260903103511 | 25 | 326 | 1.6 | 1.6 | 0.00 | 0.00 | 0.00 | 86 | 1013.6 |
| 20260903103007 | 25 | 311 | 1.6 | 1.6 | 0.00 | 0.00 | 0.00 | 86 | 1013.5 |
| 20260903102502 | 25 | 342 | 1.6 | 1.6 | 0.00 | 0.00 | 0.00 | 86 | 1013.7 |
| 20260903102000 | 25 | 304 | 1.6 | 1.6 | 0.00 | 0.00 | 0.00 | 87 | 1013.9 |
| 20260903101455 | 25 | 334 | 1.6 | 1.6 | 0.00 | 0.00 | 0.00 | 87 | 1013.6 |
| 20260903100951 | 25 | 347 | 0.0 | 0.0 | 0.00 | 0.00 | 0.00 | 87 | 1013.6 |
| 20260903100447 | 25 | 339 | 1.6 | 1.6 | 0.00 | 0.00 | 0.00 | 87 | 1013.7 |
| 20260903095944 | 25 | 341 | 1.6 | 1.6 | 0.00 | 0.00 | 0.00 | 87 | 1013.6 |
| 20260903095443 | 25 | 330 | 0.0 | 1.6 | 0.00 | 0.00 | 0.00 | 87 | 1013.7 |
| 20260903094939 | 25 | 341 | 0.0 | 0.0 | 0.00 | 0.00 | 0.00 | 87 | 1013.6 |
| 20260903094438 | 25 | 331 | 1.6 | 1.6 | 0.00 | 0.00 | 0.00 | 88 | 1013.7 |
| 20260903093935 | 25 | 316 | 0.0 | 1.6 | 0.00 | 0.00 | 0.00 | 88 | 1013.7 |
| 20260903093429 | 25 | 314 | 1.6 | 1.6 | 0.00 | 0.00 | 0.00 | 88 | 1013.6 |
| 20260903092925 | 25 | 336 | 0.0 | 0.0 | 0.00 | 0.00 | 0.00 | 88 | 1013.6 |
| 20260903092425 | 25 | 310 | 1.6 | 1.6 | 0.00 | 0.00 | 0.00 | 88 | 1013.5 |
| 20260903091924 | 25 | 333 | 1.6 | 1.6 | 0.00 | 0.00 | 0.00 | 87 | 1013.7 |
| 20260903091422 | 25 | 308 | 1.6 | 3.2 | 0.00 | 0.00 | 0.00 | 88 | 1013.6 |
| 20260903090918 | 25 | 341 | 0.0 | 0.0 | 0.00 | 0.00 | 0.00 | 88 | 1013.7 |
| 20260903090413 | 25 | 329 | 0.0 | 1.6 | 0.00 | 0.00 | 0.00 | 88 | 1013.6 |
| 20260903085912 | 25 | 329 | 0.0 | 1.6 | 0.00 | 0.00 | 0.00 | 88 | 1013.5 |
| 20260903085410 | 25 | 339 | 0.0 | 1.6 | 0.00 | 0.00 | 0.00 | 88 | 1013.7 |
| 20260903084910 | 25 | 318 | 0.0 | 1.6 | 0.00 | 0.00 | 0.00 | 88 | 1013.6 |
| 20260903084409 | 25 | 325 | 1.6 | 1.6 | 0.00 | 0.00 | 0.00 | 88 | 1013.7 |
| 20260903083904 | 25 | 340 | 0.0 | 1.6 | 0.00 | 0.00 | 0.00 | 88 | 1013.6 |
| 20260903083400 | 25 | 343 | 0.0 | 0.0 | 0.00 | 0.00 | 0.00 | 88 | 1013.6 |
| 20260903082859 | 25 | 341 | 1.6 | 1.6 | 0.00 | 0.00 | 0.00 | 88 | 1013.6 |
| 20260903082354 | 25 | 8 | 1.6 | 1.6 | 0.00 | 0.00 | 0.00 | 88 | 1013.6 |
| 20260903081849 | 25 | 345 | 0.0 | 0.0 | 0.00 | 0.00 | 0.00 | 88 | 1013.5 |
| 20260903081344 | 25 | 336 | 0.0 | 0.0 | 0.00 | 0.00 | 0.00 | 88 | 1013.4 |
| 20260903080841 | 25 | 325 | 0.0 | 1.6 | 0.00 | 0.00 | 0.00 | 88 | 1013.5 |
| 20260903080338 | 25 | 330 | 0.0 | 1.6 | 0.00 | 0.00 | 0.00 | 88 | 1013.5 |
| 20260903075837 | 25 | 309 | 1.6 | 3.2 | 0.00 | 0.00 | 0.00 | 88 | 1013.4 |
| 20260903075333 | 25 | 325 | 1.6 | 1.6 | 0.00 | 0.00 | 0.00 | 88 | 1013.4 |
| 20260903074827 | 25 | 344 | 0.0 | 0.0 | 0.00 | 0.00 | 0.00 | 89 | 1013.6 |
| 20260903074327 | 25 | 335 | 0.0 | 0.0 | 0.00 | 0.00 | 0.00 | 89 | 1013.5 |
| 20260903073822 | 25 | 340 | 0.0 | 1.6 | 0.00 | 0.00 | 0.00 | 89 | 1013.4 |
| 20260903073317 | 25 | 273 | 3.2 | 3.2 | 0.00 | 0.00 | 0.00 | 89 | 1013.5 |
| 20260903072813 | 25 | 20 | 0.0 | 1.6 | 0.00 | 0.00 | 0.00 | 89 | 1013.5 |
| 20260903072309 | 25 | 335 | 0.0 | 1.6 | 0.00 | 0.00 | 0.00 | 89 | 1013.5 |
| 20260903071807 | 25 | 345 | 0.0 | 0.0 | 0.00 | 0.00 | 0.00 | 90 | 1013.5 |
| 20260903071302 | 25 | 341 | 0.0 | 0.0 | 0.00 | 0.00 | 0.00 | 90 | 1013.6 |
| 20260903070801 | 25 | 337 | 0.0 | 0.0 | 0.00 | 0.00 | 0.00 | 90 | 1013.5 |
| 20260903070257 | 25 | 26 | 1.6 | 1.6 | 0.00 | 0.00 | 0.00 | 90 | 1013.7 |
| 20260903065747 | 25 | 345 | 1.6 | 1.6 | 0.00 | 0.00 | 0.00 | 90 | 1013.7 |
| 20260903065246 | 25 | 350 | 1.6 | 1.6 | 0.00 | 0.00 | 0.00 | 90 | 1013.6 |
| 20260903064745 | 25 | 355 | 0.0 | 0.0 | 0.00 | 0.00 | 0.00 | 91 | 1013.6 |
| 20260903064240 | 25 | 353 | 0.0 | 0.0 | 0.00 | 0.00 | 0.00 | 91 | 1013.6 |
| 20260903063736 | 25 | 345 | 0.0 | 0.0 | 0.00 | 0.00 | 0.00 | 91 | 1013.7 |
| 20260903063231 | 26 | 352 | 0.0 | 1.6 | 0.00 | 0.00 | 0.00 | 91 | 1013.9 |
| 20260903062727 | 26 | 352 | 0.0 | 0.0 | 0.00 | 0.00 | 0.00 | 91 | 1013.7 |
| 20260903062226 | 26 | 351 | 0.0 | 0.0 | 0.00 | 0.00 | 0.00 | 91 | 1013.9 |
| 20260903061723 | 26 | 350 | 0.0 | 0.0 | 0.00 | 0.00 | 0.00 | 91 | 1014.1 |
| 20260903061221 | 26 | 343 | 0.0 | 0.0 | 0.00 | 0.00 | 0.00 | 90 | 1014.0 |
| 20260903060717 | 26 | 352 | 0.0 | 0.0 | 0.00 | 0.00 | 0.00 | 89 | 1014.1 |
| 20260903060217 | 26 | 2 | 0.0 | 1.6 | 0.00 | 0.00 | 0.00 | 89 | 1013.9 |
| 20260903055715 | 26 | 335 | 0.0 | 1.6 | 0.00 | 0.00 | 0.00 | 88 | 1013.9 |
| 20260903055214 | 26 | 350 | 0.0 | 1.6 | 0.00 | 0.00 | 0.00 | 88 | 1013.7 |
| 20260903054708 | 26 | 348 | 0.0 | 0.0 | 0.00 | 0.00 | 0.00 | 88 | 1013.7 |
| 20260903054204 | 26 | 9 | 1.6 | 1.6 | 0.00 | 0.00 | 0.00 | 88 | 1013.9 |
| 20260903053700 | 26 | 337 | 1.6 | 1.6 | 0.00 | 0.00 | 0.00 | 88 | 1013.9 |
| 20260903053150 | 26 | 345 | 0.0 | 1.6 | 0.00 | 0.00 | 0.00 | 88 | 1013.9 |
| 20260903052646 | 26 | 348 | 0.0 | 0.0 | 0.00 | 0.00 | 0.00 | 88 | 1013.9 |
| 20260903052141 | 26 | 353 | 0.0 | 0.0 | 0.00 | 0.00 | 0.00 | 88 | 1013.9 |
| 20260903051636 | 26 | 349 | 1.6 | 1.6 | 0.00 | 0.00 | 0.00 | 88 | 1013.7 |
| 20260903051131 | 26 | 353 | 0.0 | 0.0 | 0.00 | 0.00 | 0.00 | 88 | 1013.9 |
| 20260903050626 | 27 | 6 | 1.6 | 1.6 | 0.00 | 0.00 | 0.00 | 88 | 1013.7 |
| 20260903050126 | 27 | 350 | 1.6 | 1.6 | 0.00 | 0.00 | 0.00 | 87 | 1013.9 |
| 20260903045625 | 27 | 355 | 0.0 | 1.6 | 0.00 | 0.00 | 0.00 | 87 | 1013.9 |
| 20260903045122 | 27 | 351 | 0.0 | 0.0 | 0.00 | 0.00 | 0.00 | 88 | 1014.0 |
| 20260903044617 | 27 | 350 | 0.0 | 0.0 | 0.00 | 0.00 | 0.00 | 88 | 1013.9 |
| 20260903044113 | 27 | 350 | 0.0 | 0.0 | 0.00 | 0.00 | 0.00 | 87 | 1014.0 |
| 20260903043609 | 27 | 0 | 1.6 | 1.6 | 0.00 | 0.00 | 0.00 | 87 | 1014.1 |
| 20260903043108 | 27 | 352 | 1.6 | 1.6 | 0.00 | 0.00 | 0.00 | 87 | 1014.1 |
| 20260903042603 | 27 | 353 | 0.0 | 0.0 | 0.00 | 0.00 | 0.00 | 87 | 1014.0 |
| 20260903042058 | 27 | 343 | 0.0 | 0.0 | 0.00 | 0.00 | 0.00 | 87 | 1013.9 |
| 20260903041555 | 27 | 355 | 1.6 | 1.6 | 0.00 | 0.00 | 0.00 | 87 | 1014.0 |
| 20260903041050 | 27 | 20 | 1.6 | 1.6 | 0.00 | 0.00 | 0.00 | 87 | 1014.0 |